Location: ČR
(50.0000°N, 15.0000°E)
Time: 11:02:18
(UTC+00:00)

ISS - Pass Details

Date: 26 September 2021
Orbit: 417 x 423 km, 51.6° (Epoch: 16 October)

Event Time Altitude Azimuth Distance (km) Brightness Sun altitude
Rises 17:17:11 0° 265° (W) 2,360 2.4 -5.3°
Reaches altitude 10° 17:19:17 10° 268° (W) 1,498 0.9 -5.7°
Maximum altitude 17:22:37 68° 352° (N) 455 -3.5 -6.2°
Drops below altitude 10° 17:26:00 10° 77° (ENE) 1,503 -1.5 -6.8°
Enters shadow 17:26:22 - 77° (ENE) 1,655 -1.3 -6.8°
